Location: Hokitika
(42.7170°S, 170.9670°E)
Time: 08:48:14
(UTC+13:00)

Atlas Centaur 2 - Pass Details

Date: 24 January 2019
Orbit: 459 x 1311 km, 30.4° (Epoch: 20 October)

Event Time Altitude Azimuth Distance (km) Brightness Sun altitude
Rises 22:28:56 0° 296° (WNW) 4,199 6.1 -13.0°
Reaches altitude 10° 22:32:06 10° 304° (NW) 3,290 5.4 -13.4°
Maximum altitude 22:39:30 34° 5° (N) 2,014 3.8 -14.4°
Enters shadow 22:44:20 20° 54° (NE) 2,623 4.1 -15.0°
